Regional Weather Roundup
Issued by NWS

Home | Current Version | Previous Version | Graphics & Text | Print | Product List | Glossary On
Versions: 1 2 3 4 5 6 7 8 9 10 11 12 13 14 15 16 17 18 19 20 21 22 23 24 25 26 27 28 29 30 31 32 33 34 35 36 37 38 39 40 41 42 43 44 45 46 47 48 49 50
000
ASUS43 KFSD 021802
RWRSD

WEATHER ROUNDUP FOR SOUTH DAKOTA
NATIONAL WEATHER SERVICE SIOUX FALLS SD
100 PM CDT TUE JUN 02 2015

NOTE: "FAIR" INDICATES FEW OR NO CLOUDS BELOW 12,000 FEET WITH NO
SIGNIFICANT WEATHER AND/OR OBSTRUCTIONS TO VISIBILITY.


SDZ001>005-009-010-012>017-021900-
NORTHWEST AND NORTH CENTRAL SOUTH DAKOTA

CITY           SKY/WX    TMP DP  RH WIND       PRES   REMARKS
BUFFALO          N/A     75  59  57 W21       29.77S
FAITH            N/A     79  61  53 W12       29.78R
MOBRIDGE       SUNNY     83  62  49 S13       29.70F
$$

SDZ012>016-024>037-041>051-057-063-072>074-021900-
SOUTHWEST AND SOUTH CENTRAL SOUTH DAKOTA

CITY           SKY/WX    TMP DP  RH WIND       PRES   REMARKS
RAPID CTY ARPT MOSUNNY   76  60  57 N13       29.83S
PIERRE         SUNNY     83  62  49 S14       29.72F
CUSTER         SUNNY     76  41  28 W14G22    29.96S
ELLSWORTH AFB  MOSUNNY   75  60  59 N14       29.83R
PHILIP         SUNNY     80  64  58 W5        29.76S
PINE RIDGE     MOSUNNY   78  56  46 W7        29.83F
WINNER         FAIR      87  59  38 S17G25    29.79F
$$

SDZ004>011-016>023-039-040-021900-
NORTHEAST SOUTH DAKOTA

CITY           SKY/WX    TMP DP  RH WIND       PRES   REMARKS
ABERDEEN       SUNNY     76  63  64 S24G33    29.77F
WATERTOWN      CLOUDY    72  59  63 S21G31    29.85F
BROOKINGS      PTSUNNY   73  59  60 S23G31    29.89F
SISSETON         N/A     72  59  63 S16G23    29.81F
$$

SDZ017-020-022-023-036>040-048>070-021900-
SOUTHEAST SOUTH DAKOTA

CITY           SKY/WX    TMP DP  RH WIND       PRES   REMARKS
SIOUX FALLS    CLOUDY    72  60  66 S22G29    29.91F
HURON          SUNNY     79  61  53 S17G25    29.79F
CHAMBERLAIN    SUNNY     77  63  61 S18G24    29.79F
MITCHELL       MOSUNNY   78  60  53 S23G30    29.83F
YANKTON        CLOUDY    73  59  60 S18       29.88F
$$

ABBREVIATIONS USED IN REMARKS
   TC - TEMPERATURE IN CELSIUS
  WCI - WIND CHILL INDEX
   HX - HEAT INDEX
  VSB - VISIBILITY




USA.gov is the U.S. government's official web portal to all federal, state and local government web resources and services.